Location: *
(41.7333°N, 12.9167°E)
Time: 06:36:14
(UTC+00:00)

Daily predictions for brighter satellites

Satellite Brightness Start Highest point End
(mag) Time Altitude Azimuth Time Altitude Azimuth Time Altitude Azimuth
USA 267 4.0 19:01:39 10° E 19:07:48 45° NNE 19:13:58 10° NW
Resurs 01 Rocket 1.9 19:06:19 10° SSE 19:10:37 51° ENE 19:14:55 10° N
Cosmos 2233 Rocket 4.2 19:12:51 10° S 19:19:10 84° W 19:25:32 10° N
MetOp-A 4.3 19:15:44 10° SSE 19:20:59 61° ENE 19:26:17 10° N
Cosmos 2360 Rocket 3.4 19:17:21 10° SSE 19:21:27 21° E 19:25:35 10° NE
Cosmos 1461 2.8 19:17:53 10° NNW 19:21:52 71° ENE 19:25:52 10° SE
Cosmos 2221 3.8 19:19:02 10° NNW 19:23:11 44° W 19:27:20 10° SSW
Cosmos 1980 Rocket 3.5 19:20:33 10° SW 19:25:57 46° WNW 19:31:21 10° NNE
Cosmos 371 Rocket 3.4 19:21:51 10° NNW 19:26:45 83° WSW 19:31:36 10° SSE
ISS -3.6 19:27:03 10° SW 19:30:16 47° SE 19:33:30 10° ENE
Cosmos 1328 Rocket 4.5 19:27:07 10° NNE 19:31:03 32° ENE 19:34:34 12° SE
H-2A R/B 2.4 19:27:52 10° S 19:33:18 71° WSW 19:38:41 10° NNW
Aureole 1 Rocket 3.5 19:30:48 10° SSW 19:35:25 82° ESE 19:41:39 10° NNE
ERBS 3.8 19:33:00 10° WNW 19:35:56 29° SW 19:38:51 10° S
Cosmos 1408 4.4 19:37:20 13° ESE 19:38:57 17° E 19:41:22 10° NE
Cosmos 332 Rocket 4.0 19:34:41 10° NNW 19:39:29 73° WSW 19:44:15 10° S
CZ-2C R/B 3.2 19:40:51 10° NNE 19:45:37 35° E 19:50:01 11° SSE
Cosmos 2034 Rocket 4.4 19:40:11 10° SSE 19:46:02 45° E 19:51:59 10° NNE
USA 229 DEB 4.3 19:41:53 10° S 19:47:26 30° ESE 19:53:11 10° NE
USA 229 4.3 19:42:01 10° S 19:47:34 30° ESE 19:53:16 10° NE
Cosmos 1869 3.5 19:43:57 10° NNW 19:47:54 71° W 19:51:49 10° S
Cosmos 1340 Rocket 3.0 19:44:18 10° NNW 19:48:24 76° W 19:52:27 10° S
Cosmos 304 Rocket 3.8 19:45:36 10° NNW 19:50:26 70° ENE 19:54:20 16° SSE
Cosmos 2322 Rocket 2.2 19:45:46 10° SSW 19:51:27 80° ESE 19:57:11 10° NNE
Terra 3.7 19:48:52 11° E 19:51:37 17° ENE 19:54:35 10° NNE
Cosmos 2219 Rocket 4.0 19:51:30 11° ESE 19:52:08 11° E 19:53:46 10° ENE
Cosmos 2151 2.9 19:49:48 10° S 19:54:05 86° E 19:58:23 10° N
DMSP B5D2-2 4.0 19:50:38 10° NNE 19:55:52 84° ESE 20:01:05 10° SSW
Iridium 4 Rocket 3.8 19:50:15 10° N 19:56:11 70° E 20:01:40 11° S
Thor Agena Rocket 4.3 19:52:00 10° NE 19:56:27 31° E 19:59:30 17° SSE
Cosmos 2251 Rocket 4.1 19:51:25 10° SSW 19:56:35 61° WNW 20:01:48 10° NNE
Cosmos 44 Rocket 3.3 19:51:48 10° SSW 19:56:55 74° ESE 20:01:59 10° NE
SL-16 R/B 2.3 19:51:42 10° SSW 19:57:22 81° WNW 20:03:04 10° NNE
Cosmos 2333 Rocket 3.9 19:57:44 13° ESE 19:58:21 13° E 20:00:47 10° ENE
ERS-1 Rocket 3.6 19:57:30 18° SE 20:00:51 40° ENE 20:05:32 10° N
Gbstr 26 Del rocket 4.2 19:57:40 10° W 20:01:31 39° NNW 20:05:05 10° NE
Cosmos 1825 3.5 20:00:42 20° ESE 20:01:49 23° E 20:04:50 10° NE
ADEOS Rocket 3.0 19:57:15 10° N 20:02:52 75° WNW 20:08:19 10° SSW
ARGOS 4.4 20:00:20 10° SSW 20:05:20 38° W 20:10:21 10° NNW
Cosmos 1743 Rocket 3.9 20:05:21 19° SSE 20:08:07 44° E 20:12:15 10° NNE
IGS 5A 4.3 20:07:39 22° ESE 20:09:43 36° ENE 20:13:33 10° N
Cosmos 2322 4.4 20:06:19 17° SSE 20:09:47 33° ESE 20:14:46 10° NE
Cosmos 1464 Rocket 4.1 20:06:10 10° S 20:12:27 81° W 20:18:43 10° N
Cosmos 1844 Rocket 3.7 20:09:48 10° N 20:14:56 33° ENE 20:18:14 19° ESE
EO 1 Del DPAF 3.1 20:12:03 10° NNE 20:15:50 71° E 20:18:32 18° S
Tiangong 2 1.1 20:15:11 10° W 20:18:17 61° SSW 20:19:09 40° SE
Cosmos 1515 Rocket 3.5 20:14:32 10° N 20:18:53 67° E 20:21:13 26° SSE
Cosmos 2263 Rocket 2.8 20:14:08 10° NNW 20:19:38 52° WSW 20:24:11 15° S
Cosmos 1992 Rocket 4.3 20:16:52 10° NNW 20:22:04 65° WSW 20:25:47 19° S
SPOT 1/Viking Rocket 3.6 20:20:29 24° SSE 20:23:33 63° ENE 20:28:41 10° N
USA 245 1.9 20:26:51 68° WSW 20:26:53 69° WSW 20:29:05 10° NNW
Cosmos 1408 Rocket 4.2 20:22:41 10° SSW 20:26:53 53° W 20:31:07 10° N
Spot 2 Rocket 4.4 20:25:41 11° S 20:30:16 44° W 20:35:10 10° NNW
Cosmos 2237 4.1 20:26:17 10° SSW 20:31:56 71° ESE 20:37:36 10° NNE
Cosmos 1805 Rocket 4.5 20:32:33 28° ESE 20:33:16 30° E 20:37:04 10° NNE
Cosmos 1892 3.8 20:29:42 10° SSW 20:33:21 42° W 20:37:02 10° N
SPOT 5 3.0 20:35:44 30° SSE 20:38:11 67° ENE 20:43:04 10° N
CZ-2C R/B 4.4 20:34:01 10° SSW 20:38:58 35° W 20:43:42 10° NNW
Landsat 4 4.1 20:38:06 10° NNE 20:41:39 41° E 20:41:49 41° ESE
Meteor 2-11 Rocket 4.4 20:38:24 22° S 20:42:24 72° E 20:48:28 10° NNE
Cosmos 2228 Rocket 3.1 20:39:50 10° N 20:44:24 90° E 20:46:20 35° S
Cosmos 1356 Rocket 3.4 20:40:09 10° N 20:44:28 74° E 20:45:51 42° SSE
SL-8 R/B 4.4 20:40:27 10° WNW 20:45:06 51° NNE 20:48:09 20° E
Cosmos 921 Rocket 3.9 20:42:06 10° NNW 20:46:08 43° WSW 20:48:18 24° SSW
Resurs 01 Rocket 4.2 20:44:52 10° SW 20:47:23 15° W 20:49:54 10° WNW
SL-4 R/B 2.3 20:43:20 10° SW 20:48:10 76° SE 20:52:58 10° ENE
Cosmos 1782 4.1 20:46:30 10° NNE 20:49:54 26° ENE 20:50:12 25° E
COSMOS 2428 3.2 20:48:54 34° SE 20:50:21 39° ESE 20:55:38 10° NE
CARTOSAT-1 3.5 20:49:10 42° SSE 20:50:34 81° ENE 20:54:54 10° N
USA 267 3.4 20:47:06 29° SSE 20:50:38 63° SW 20:57:09 10° NW
DELTA 2 R/B (1) 3.5 20:45:56 10° WSW 20:51:27 60° SSE 20:55:05 21° E
Mayak 0.7 20:49:10 10° NE 20:51:05 16° ENE 20:51:05 16° ENE
Cosmos 1844 4.0 20:49:20 10° NNW 20:54:51 53° ENE 20:57:03 34° ESE
Cosmos 1633 Rocket 4.4 20:56:21 23° E 20:56:21 23° E 20:59:33 10° NE
Landsat 7 4.2 20:57:35 30° SSW 20:59:46 57° W 21:04:28 10° NNW
NOSS 3-1 (C) 3.1 20:55:05 12° SSW 21:00:10 76° ESE 21:06:25 10° NE
ATLAS CENTAUR R/B 4.1 20:58:06 10° N 21:00:29 14° NE 21:02:47 10° ENE
Cosmos 1023 Rocket 4.3 21:02:26 34° S 21:04:44 78° ESE 21:09:56 10° NNE
ASTEX 1 3.6 21:00:02 10° NNE 21:04:56 52° E 21:05:57 44° SE
Cosmos 2360 Rocket 2.9 20:59:29 10° SW 21:05:00 55° WNW 21:10:33 10° NNE
ISS -1.6 21:04:08 10° W 21:07:05 28° NNW 21:10:01 10° NE
Cosmos 676 Rocket 3.9 21:05:24 41° S 21:07:07 67° ESE 21:12:20 10° NNE
Cosmos 2237 Rocket 3.7 21:07:54 20° E 21:07:54 20° E 21:11:09 10° NE
Cosmos 1408 4.4 21:11:39 17° SW 21:13:45 29° WNW 21:17:02 10° NNW
Sich 1 3.0 21:14:33 59° ESE 21:14:46 60° E 21:19:00 10° NNE
Cosmos 2084 Rocket 3.8 21:14:32 10° NNW 21:18:49 53° NE 21:19:28 48° E
Cosmos 1606 2.8 21:15:13 10° NNW 21:18:57 62° W 21:19:13 60° WSW
Cosmos 1627 Rocket 4.4 21:13:44 10° N 21:19:55 84° W 21:22:23 39° S
Cosmos 292 Rocket 3.7 21:15:58 10° NNW 21:20:49 78° WSW 21:21:48 56° S
Cosmos 1954 Rocket 3.9 21:20:00 44° S 21:21:42 83° ESE 21:27:00 10° NNE
MOS 1 Rocket 3.2 21:19:23 10° N 21:23:53 83° WNW 21:25:05 50° SSW
CZ-2C R/B 4.3 21:21:20 10° N 21:25:47 29° WNW 21:30:10 10° SW
Terra 2.2 21:27:45 45° SSW 21:28:53 57° W 21:33:35 10° NNW
Cosmos 1140 Rocket 3.8 21:27:46 28° SW 21:30:26 64° WNW 21:35:37 10° NNE
Cosmos 2279 Rocket 3.9 21:31:09 45° S 21:33:13 81° E 21:39:25 10° N
Cosmos 2219 Rocket 2.1 21:33:10 43° SSW 21:35:10 87° ESE 21:40:52 10° NNE
Cosmos 1825 4.4 21:35:29 16° WSW 21:37:16 21° WNW 21:40:12 10° NNW
Meteor 2-3 Rocket 4.5 21:34:30 23° SW 21:37:56 50° WNW 21:43:35 10° N
USA 229 DEB 4.3 21:31:33 10° SW 21:37:59 55° NW 21:44:45 10° NNE
USA 229 4.3 21:31:39 10° SW 21:38:06 55° NW 21:44:52 10° NNE
NOSS 3-1 (A) 3.2 21:38:17 31° SW 21:41:04 86° NW 21:47:25 10° NE
Spot 4 4.0 21:41:09 53° E 21:41:34 55° ENE 21:46:14 10° N
Cosmos 2333 Rocket 2.2 21:39:40 41° SSW 21:41:47 85° WNW 21:47:31 10° NNE
BREEZE-M DEB (TANK) 4.3 21:40:05 10° NW 21:42:31 28° NNE 21:47:55 10° ENE
Cosmos 2278 Rocket 2.8 21:39:48 10° NNW 21:45:15 45° ENE 21:46:37 38° E
Cosmos 1707 Rocket 3.8 21:47:43 10° NNW 21:52:07 61° W 21:52:17 61° WSW
NOSS 2-3 (E) 3.8 21:53:10 61° ENE 21:53:10 61° ENE 21:57:34 10° NE
Cosmos 1607 3.9 21:47:09 10° NW 21:53:17 72° WSW 21:54:31 56° S
Helios 1A 3.1 21:54:50 70° NNE 21:54:50 70° NNE 21:58:41 10° N
NOSS 2-3 (D) 3.9 21:56:04 58° ENE 21:56:04 58° ENE 22:00:21 10° NE
Cosmos 1844 Rocket 3.6 21:53:39 10° NW 21:58:49 37° WSW 21:59:54 34° SW
SeaSat 1 3.2 21:55:00 10° NE 21:58:44 38° E 21:58:44 38° E
Nimbus 7 Rocket 4.3 21:58:34 10° NNE 22:04:32 88° ESE 22:05:50 58° SSW
Cosmos 1763 Rocket 4.1 22:01:11 10° N 22:06:08 44° ENE 22:06:44 42° E
NOSS 0 Rocket 3.8 22:06:55 59° S 22:08:09 82° ESE 22:14:21 10° NNE
Cosmos 468 Rocket 4.1 22:03:27 10° NNW 22:08:42 63° ENE 22:09:08 60° E
Lacrosse 5 rocket 3.6 22:08:58 10° NNW 22:12:41 24° NNE 22:15:02 16° ENE
Cosmos 1655 Rocket 4.3 22:16:10 10° NNW 22:22:16 57° W 22:23:37 47° SW
YAOGAN 11 4.3 22:23:11 66° N 22:23:11 66° N 22:26:55 10° NNW
Cosmos 2242 Rocket 3.8 22:18:24 10° N 22:22:30 71° NNE 22:22:30 71° NNE
Cosmos 1818 4.1 22:19:35 10° NW 22:24:37 44° WSW 22:24:37 44° WSW
Cosmos 2208 Rocket 4.2 22:19:52 10° NNW 22:25:16 60° ENE 22:25:41 58° E
Cosmos 1703 Rocket 4.5 22:21:07 10° N 22:24:50 41° ENE 22:24:50 41° ENE
ERS-2 4.0 22:28:08 25° NE 22:28:08 25° NE 22:30:25 10° N
Mayak -0.3 22:23:38 10° N 22:27:38 42° WNW 22:27:40 42° WNW
SL-4 R/B 4.0 22:23:53 10° W 22:28:18 34° NNW 22:32:35 10° NE
ALOS 2 2.9 22:33:16 63° NNE 22:33:16 63° NNE 22:37:04 10° N
Cosmos 1315 Rocket 4.5 22:29:10 10° NNE 22:31:48 27° NE 22:31:48 27° NE
Cosmos 1812 3.8 22:29:06 10° N 22:31:48 43° N 22:31:48 43° N
Cosmos 1933 Rocket 3.9 22:34:02 62° NNW 22:34:02 62° NNW 22:37:51 10° N
SL-16 R/B 3.0 22:34:08 38° E 22:34:08 38° E 22:38:46 10° NE
COSMOS 2428 4.2 22:30:50 16° WSW 22:34:39 32° NW 22:39:46 10° N
Cosmos 1400 Rocket 3.6 22:31:48 10° N 22:34:59 52° N 22:34:59 52° N
Cosmos 1570 Rocket 3.9 22:31:43 10° NNW 22:36:57 88° NE 22:36:57 88° NE
DELTA 2 R/B (1) 4.2 22:32:10 10° W 22:35:50 42° WSW 22:35:50 42° WSW
NOSS 2-3 (C) 4.4 22:37:14 44° W 22:38:00 49° NW 22:43:02 10° NNE
Lacrosse 4 Rocket 3.0 22:41:22 29° ENE 22:41:22 29° ENE 22:43:53 10° NE
ATLAS CENTAUR R/B 2.0 22:35:40 10° NNW 22:39:44 62° N 22:39:44 62° N
Helios 1B rocket 3.1 22:36:21 10° N 22:39:43 54° NNW 22:39:43 54° NNW
Okean 1-7 3.9 22:37:44 10° N 22:41:09 45° NE 22:41:09 45° NE
Cosmos 1932 4.4 22:36:26 10° NNW 22:42:56 86° ENE 22:43:58 66° SE
Cosmos 1980 4.0 22:42:14 51° WSW 22:43:20 61° WNW 22:49:00 10° NNE
ISS -0.5 22:42:33 10° NW 22:44:34 15° N 22:46:36 10° NE
Spot 1 4.5 22:45:37 76° ENE 22:45:37 76° ENE 22:50:37 10° N
GP-B 3.7 22:41:23 10° N 22:45:14 52° WNW 22:45:14 52° WNW
Cosmos 1867 4.4 22:44:54 33° W 22:46:50 47° NW 22:52:07 10° NNE
Cosmos 2237 Rocket 2.6 22:49:41 49° WSW 22:50:45 57° WNW 22:56:18 10° NNE
COSMOS 2455 2.7 22:51:59 77° SSE 22:52:20 81° ESE 22:58:24 10° NNE
Lacrosse 5 3.2 22:49:36 10° NW 22:54:18 36° NE 22:56:25 25° E
Cosmos 2285 Rocket 3.8 22:53:55 72° SSE 22:54:33 80° ESE 23:00:52 10° NNE
Cosmos 1814 Rocket 4.0 22:50:09 10° NNW 22:55:10 73° NE 22:55:10 73° NE
Cosmos 1869 Rocket 4.2 22:58:41 51° NNE 22:58:41 51° NNE 23:02:07 10° NNE
Cosmos 724 4.2 22:59:32 10° NW 23:05:31 71° WSW 23:05:33 71° WSW
Cosmos 1244 Rocket 4.4 22:59:26 10° N 23:05:50 83° E 23:06:38 70° SSE
Meteor 1-14 Rocket 4.4 23:10:09 61° ESE 23:10:22 62° E 23:16:11 10° NNE
Cosmos 1553 Rocket 3.8 23:18:08 70° SE 23:18:38 74° E 23:24:43 10° N
Meteor 1-25 Rocket 4.0 23:18:37 86° SW 23:18:44 87° W 23:24:20 10° N
Meteor 1-18 Rocket 4.2 23:14:08 10° N 23:19:45 71° E 23:20:01 70° E
Meteor 2-19 Rocket 4.3 23:13:38 10° N 23:19:49 87° E 23:20:28 74° SSE
S3M 4.1 23:22:03 59° SE 23:22:51 64° E 23:29:11 10° NNE
Cosmos 2297 3.5 23:17:23 10° NNW 23:23:04 88° ENE 23:23:14 85° SE
Cosmos 540 Rocket 3.4 23:18:22 10° NNW 23:23:07 76° NW 23:23:07 76° NW
Cosmos 1417 Rocket 4.3 23:23:34 71° SSE 23:24:18 82° E 23:30:35 10° N
Meteor 1-20 Rocket 4.2 23:26:19 73° WSW 23:26:40 77° W 23:32:32 10° N
Cosmos 1486 Rocket 4.0 23:28:14 77° ENE 23:28:14 77° ENE 23:33:20 10° NNE
Cosmos 2278 Rocket 3.6 23:24:24 10° NW 23:28:27 26° W 23:28:27 26° W
Cosmos 1943 Rocket 3.6 23:26:29 10° N 23:31:19 30° NE 23:33:54 21° E
ATLAS 5 CENTAUR R/B 3.3 23:26:19 10° NNW 23:31:52 44° NE 23:35:45 22° ESE
SL-16 R/B 4.5 23:28:02 10° ESE 23:32:28 22° ENE 23:37:00 10° NNE
Okean 1 4.4 23:32:17 10° N 23:35:07 44° N 23:35:07 44° N
SeaSat 1 4.0 23:32:48 10° N 23:37:00 28° NW 23:38:30 24° W
Cosmos 1733 Rocket 3.8 23:38:02 48° NE 23:38:02 48° NE 23:41:35 10° NNE
Cosmos 1503 Rocket 4.4 23:39:41 53° E 23:39:41 53° E 23:44:35 10° NNE
Cosmos 841 Rocket 4.2 23:35:38 10° NNW 23:39:43 41° WNW 23:39:43 41° WNW
BREEZE-M DEB (TANK) 4.3 23:33:10 10° W 23:43:18 58° N 23:46:55 10° E
Resurs 1-4 Rocket 4.0 23:41:20 10° NE 23:44:49 18° E 23:45:39 17° ESE
Cosmos 968 Rocket 3.6 23:51:12 61° E 23:51:12 61° E 23:56:06 10° NNE
Lacrosse 5 rocket 2.6 23:47:50 10° NW 23:50:38 37° NW 23:50:38 37° NW
Cosmos 1745 Rocket 3.8 23:47:17 10° N 23:53:36 82° W 23:54:26 68° SSW
